Lid_Strength_Index
3 3 3 4 3 3 3 3 3 3 3 2 2 2 2 2 2 2 7 4 3 -1 -1 1 3 2 3 4 4 5 8 10 10 11 10 7 6 7 4 5 4 4 4 3 2
4 4 4 4 4 4 3 3 3 3 3 2 2 2 2 1 3 5 2 1 -1 -2 4 4 5 4 5 5 5 6 8 8 8 8 9 8 8 7 7 7 6 4 4 3 2
4 4 4 4 4 4 4 3 3 3 3 3 2 2 1 1 7 7 -0 -1 -2 -2 3 4 3 5 6 6 6 6 7 6 6 7 8 9 9 8 8 8 6 5 5 4 4
4 4 4 4 4 4 4 3 3 3 3 3 2 2 2 3 11 5 -3 -3 -2 1 4 5 5 6 7 7 6 8 6 6 5 6 8 9 9 9 8 6 6 4 3 4 4
4 4 4 4 4 4 4 3 3 3 3 3 2 2 2 8 7 5 -1 -1 -0 2 5 5 6 6 8 7 7 8 7 6 5 5 6 8 9 10 9 6 6 3 4 4 4
4 4 4 4 4 4 3 3 3 3 3 3 2 1 5 9 5 0 -0 0 1 3 5 5 5 5 6 7 7 7 7 7 6 6 6 8 8 9 8 6 6 4 5 4 4
4 4 4 4 4 4 3 3 3 3 3 2 1 2 6 7 5 4 3 2 1 4 6 5 5 5 6 7 6 8 8 7 7 6 7 6 9 9 8 7 6 4 4 4 4
4 4 4 4 4 4 3 3 2 2 2 1 1 2 7 4 4 4 4 2 2 3 4 4 5 6 6 7 8 9 9 10 7 7 6 6 9 7 7 6 6 5 4 4 4
4 4 4 4 4 3 3 3 1 1 1 0 2 5 7 2 5 3 3 4 3 3 3 4 4 6 7 8 9 10 11 11 9 7 7 7 8 6 6 6 8 6 4 5 4
4 4 4 4 3 3 4 3 1 1 1 1 2 6 5 6 4 3 3 3 4 4 5 5 7 8 8 9 12 11 11 11 10 8 8 8 8 6 5 5 5 4 5 5 5
4 5 4 4 3 3 5 5 7 7 7 8 7 7 6 4 3 4 3 4 4 5 7 7 9 11 9 8 8 9 10 11 10 8 9 8 8 7 6 6 5 4 4 5 5
5 4 4 4 4 4 6 7 8 7 9 7 7 7 6 5 7 5 3 5 6 7 8 9 9 7 8 9 9 10 10 10 9 8 9 8 9 7 6 6 6 5 4 4 4
5 5 4 4 4 5 7 8 6 7 9 8 6 6 5 5 7 6 4 5 6 8 8 9 8 7 9 10 10 10 10 10 10 9 9 9 10 8 6 6 5 5 4 3 4
5 5 5 5 6 7 7 6 6 7 10 9 7 6 5 5 7 4 5 5 7 7 8 9 7 8 9 9 9 11 9 9 10 10 12 9 13 9 8 7 6 5 5 4 4
5 5 5 5 6 7 7 6 6 6 16 8 8 4 5 7 7 6 5 6 8 8 8 8 8 9 9 8 8 9 8 9 9 10 11 10 12 10 9 8 7 5 5 4 3
6 5 5 5 7 7 6 7 5 10 16 10 8 8 8 8 8 7 7 6 7 8 8 8 7 8 8 7 7 7 8 9 10 10 13 10 11 11 9 8 6 5 5 4 3
6 6 6 5 9 7 7 6 11 14 10 12 11 9 10 10 9 9 10 11 11 11 11 9 9 7 6 8 7 8 9 13 14 14 15 9 11 10 7 7 6 6 5 5 5
7 7 6 6 6 8 6 8 15 13 13 10 11 10 11 11 10 10 11 12 11 11 11 12 13 9 7 8 10 9 9 12 16 15 13 11 13 9 7 6 6 5 5 4 4
7 7 6 6 7 7 7 13 14 13 12 12 11 12 12 12 11 10 12 12 13 11 13 13 12 9 8 8 8 10 11 9 11 11 13 11 9 8 7 7 6 6 6 5 5
9 9 7 7 8 7 10 14 13 11 11 11 13 12 14 13 13 11 12 12 12 10 9 12 14 11 10 8 8 9 9 13 12 16 17 13 12 11 10 9 7 7 6 5 5
9 10 7 7 7 9 13 14 12 11 10 11 12 13 13 14 13 12 13 12 10 10 9 11 12 12 11 12 13 11 10 11 12 13 15 15 13 9 9 8 8 7 6 6 5
10 12 7 8 12 13 13 13 11 12 10 11 11 12 13 13 14 12 12 11 9 8 12 11 11 14 13 11 10 12 13 13 15 14 13 13 13 9 9 8 7 7 6 6 5
12 12 8 8 14 14 13 13 11 12 11 11 12 11 11 12 14 12 12 9 8 9 11 11 13 16 15 12 10 12 13 14 13 12 15 17 13 9 9 8 8 8 7 6 5
11 13 11 11 12 14 14 14 13 10 11 10 11 10 11 12 11 12 11 9 8 9 8 9 12 15 17 15 12 15 13 13 14 15 14 14 13 10 9 10 9 8 7 6 5
12 14 13 15 13 14 14 14 13 12 10 10 11 10 11 12 11 11 11 10 9 9 9 10 14 13 13 12 13 14 14 14 15 13 15 13 13 11 10 12 11 8 8 6 5
12 13 12 13 13 14 14 14 13 12 11 11 11 9 9 10 10 11 10 10 10 9 10 10 13 12 13 11 11 13 12 11 12 13 14 13 14 10 9 9 10 9 8 7 6
11 11 12 14 14 14 14 13 12 11 10 9 9 9 9 8 7 7 7 7 7 8 9 10 10 12 14 12 12 14 11 10 10 10 10 14 12 10 10 9 8 9 9 9 6